Location: Kędzierzyn-Koźle
(50.3448°N, 18.2086°E)
Time: 05:18:30
(UTC+02:00)

ISS - Visible Passes

Search period start: 28 May 2018 00:00
Search period end: 07 June 2018 00:00
Orbit: 402 x 407 km, 51.6° (Epoch: 28 May)

Date Brightness Start Highest point End Pass type
(mag) Time Alt. Az. Time Alt. Az. Time Alt. Az.
28 May -1.6 01:07:32 10° W 01:08:21 15° W 01:08:21 15° W visible
28 May -3.7 22:38:37 10° WNW 22:41:55 74° N 22:45:05 11° E visible
29 May -3.1 00:15:11 10° W 00:17:42 38° WSW 00:17:42 38° WSW visible
29 May -3.5 21:46:22 10° W 21:49:38 68° N 21:52:54 10° E visible
29 May -3.9 23:22:55 10° WNW 23:26:09 63° SSW 23:27:06 40° SE visible
30 May -3.9 22:30:39 10° WNW 22:33:56 86° SSW 22:36:30 15° ESE visible
31 May -2.1 00:07:24 10° W 00:09:08 21° WSW 00:09:08 21° WSW visible
31 May -3.7 21:38:23 10° WNW 21:41:40 78° N 21:44:57 10° E visible
31 May -3.2 23:14:58 10° W 23:18:02 37° SSW 23:18:34 34° S visible
01 Jun -3.6 22:22:38 10° WNW 22:25:51 55° SSW 22:28:02 18° SE visible
02 Jun -1.3 00:00:08 10° WSW 00:00:40 12° WSW 00:00:40 12° WSW visible
02 Jun -3.8 21:30:20 10° WNW 21:33:37 78° SSW 21:36:52 10° ESE visible
02 Jun -2.3 23:07:12 10° W 23:09:44 21° SW 23:10:09 20° SSW visible
03 Jun -2.8 22:14:39 10° W 22:17:37 32° SSW 22:19:40 16° SSE visible
04 Jun -1.4 23:00:16 10° WSW 23:01:17 11° SW 23:01:50 11° SW visible
05 Jun -1.8 22:06:55 10° W 22:09:14 18° SW 22:11:24 11° S visible
